| time (UTC) | temp F | wind direction | speed MPH | gust MPH | rain 1hr in | rain 24hr in | rain mn in | humidity % | barometer mb |
| 20260502204346 | 76 | 80 | 0.0 | 5.0 | 0.03 | 0.12 | 0.57 | 45 | 1014.3 |
| 20260502203847 | 76 | 35 | 1.0 | 5.0 | 0.04 | 0.12 | 0.57 | 46 | 1014.3 |
| 20260502203608 | 76 | 193 | 1.0 | 11.0 | 0.04 | 0.12 | 0.57 | 48 | 1014.5 |
| 20260502203454 | 76 | 193 | 1.0 | 11.0 | 0.04 | 0.12 | 0.57 | 48 | 1014.5 |
| 20260502202846 | 76 | 42 | 2.0 | 11.0 | 0.03 | 0.11 | 0.56 | 45 | 1014.3 |
| 20260502202345 | 76 | 344 | 0.0 | 4.0 | 0.04 | 0.11 | 0.56 | 43 | 1014.5 |
| 20260502201848 | 76 | 104 | 0.0 | 7.0 | 0.04 | 0.11 | 0.56 | 43 | 1014.4 |
| 20260502201345 | 76 | 331 | 3.0 | 7.0 | 0.04 | 0.10 | 0.55 | 43 | 1014.5 |
| 20260502200847 | 77 | 185 | 0.0 | 0.0 | 0.04 | 0.10 | 0.55 | 43 | 1014.5 |
| 20260502200345 | 77 | 73 | 0.0 | 1.0 | 0.04 | 0.10 | 0.55 | 43 | 1014.7 |
| 20260502195849 | 77 | 0 | 0.0 | 3.0 | 0.04 | 0.09 | 0.54 | 44 | 1014.6 |
| 20260502195344 | 76 | 102 | 0.0 | 6.0 | 0.04 | 0.09 | 0.54 | 43 | 1014.6 |
| 20260502194840 | 76 | 338 | 0.0 | 6.0 | 0.04 | 0.09 | 0.54 | 44 | 1014.8 |
| 20260502194339 | 77 | 173 | 1.0 | 4.0 | 0.05 | 0.09 | 0.54 | 43 | 1014.9 |
| 20260502194103 | 77 | 96 | 1.0 | 3.0 | 0.04 | 0.08 | 0.53 | 44 | 1015.0 |
| 20260502193955 | 77 | 96 | 1.0 | 3.0 | 0.04 | 0.08 | 0.53 | 44 | 1015.0 |
| 20260502193345 | 77 | 34 | 0.0 | 0.0 | 0.04 | 0.08 | 0.53 | 46 | 1015.1 |
| 20260502192846 | 77 | 168 | 0.0 | 3.0 | 0.05 | 0.08 | 0.53 | 46 | 1015.0 |
| 20260502192344 | 77 | 299 | 0.0 | 3.0 | 0.04 | 0.07 | 0.52 | 47 | 1015.1 |
| 20260502191845 | 77 | 145 | 0.0 | 3.0 | 0.04 | 0.07 | 0.52 | 48 | 1015.2 |
| 20260502191341 | 77 | 65 | 1.0 | 3.0 | 0.04 | 0.06 | 0.51 | 46 | 1015.2 |
| 20260502190841 | 77 | 4 | 0.0 | 0.0 | 0.04 | 0.06 | 0.51 | 49 | 1015.3 |
| 20260502190558 | 77 | 200 | 0.0 | 0.0 | 0.04 | 0.06 | 0.51 | 45 | 1015.3 |
| 20260502190445 | 77 | 200 | 0.0 | 0.0 | 0.04 | 0.06 | 0.51 | 45 | 1015.3 |
| 20260502185843 | 0 | 0.0 | 1.0 | 0.04 | 0.05 | 0.50 | 1015.4 | ||
| 20260502185343 | 78 | 0 | 0.0 | 1.0 | 0.04 | 0.05 | 0.50 | 49 | 1015.4 |
| 20260502184844 | 77 | 316 | 0.0 | 0.0 | 0.05 | 0.05 | 0.50 | 49 | 1015.4 |
| 20260502184342 | 77 | 261 | 0.0 | 3.0 | 0.04 | 0.04 | 0.49 | 47 | 1015.6 |
| 20260502183845 | 77 | 25 | 0.0 | 3.0 | 0.04 | 0.04 | 0.49 | 47 | 1015.6 |
| 20260502183549 | 76 | 103 | 0.0 | 0.0 | 0.03 | 0.03 | 0.48 | 49 | 1015.7 |
| 20260502183441 | 77 | 300 | 0.0 | 0.0 | 0.04 | 0.04 | 0.49 | 47 | 1015.6 |
| 20260502182952 | 76 | 103 | 0.0 | 0.0 | 0.03 | 0.03 | 0.48 | 49 | 1015.7 |
| 20260502182342 | 76 | 173 | 0.0 | 0.0 | 0.03 | 0.03 | 0.48 | 48 | 1015.7 |
| 20260502181844 | 76 | 154 | 0.0 | 0.0 | 0.03 | 0.03 | 0.48 | 50 | 1015.7 |
| 20260502181559 | 76 | 51 | 0.0 | 0.0 | 0.02 | 0.02 | 0.47 | 48 | 1016.0 |
| 20260502181449 | 76 | 51 | 0.0 | 0.0 | 0.02 | 0.02 | 0.47 | 48 | 1016.0 |
| 20260502180843 | 75 | 252 | 0.0 | 2.0 | 0.02 | 0.02 | 0.47 | 49 | 1015.8 |
| 20260502180342 | 76 | 200 | 0.0 | 2.0 | 0.02 | 0.02 | 0.47 | 52 | 1016.0 |